Regional Weather Roundup
Issued by NWS

Home | Current Version | Previous Version | Graphics & Text | Print | Product List | Glossary On
Versions: 1 2 3 4 5 6 7 8 9 10 11 12 13 14 15 16 17 18 19 20 21 22 23 24 25 26 27 28 29 30 31 32 33 34 35 36 37 38 39 40 41 42 43 44 45 46 47 48 49 50
000
ASUS43 KLMK 220402
RWRKY
KENTUCKY REGIONAL WEATHER ROUNDUP
NATIONAL WEATHER SERVICE LOUISVILLE KY
1200 AM EDT TUE AUG 22 2017

NOTE "FAIR" INDICATES FEW OR NO CLOUDS BELOW 12,000 FEET
WITH NO SIGNIFICANT WEATHER AND/OR OBSTRUCTIONS TO VISIBILITY.

KYZ001>023-026-027-061>063-070>075-220500-
WESTERN AND SOUTH CENTRAL KENTUCKY

CITY           SKY/WX    TMP DP  RH WIND       PRES   REMARKS
PADUCAH        CLEAR     81  69  67 S6        30.05F
HENDERSON      NOT AVBL
OWENSBORO      PTCLDY    75  72  90 S5        30.07F
HOPKINSVILLE   CLEAR     81  73  77 SE3       30.10F
BOWLING GREEN  PTCLDY    82  71  69 S7        30.10F
GLASGOW        NOT AVBL
$$

KYZ024-025-028>034-038-045-046-053-220500-
NORTH CENTRAL KENTUCKY

CITY           SKY/WX    TMP DP  RH WIND       PRES   REMARKS
LOUISVILLE/SDF CLOUDY    84  68  58 S9        30.07F
LOUISVILLE/LOU CLOUDY    82  72  71 S8        30.08F
FORT KNOX      CLOUDY    75  69  82 S5        30.08S
$$

KYZ035>037-039>044-047>052-055>060-089>105-220500-
NORTHEAST KENTUCKY

CITY           SKY/WX    TMP DP  RH WIND       PRES   REMARKS
LEXINGTON      PTCLDY    77  67  71 S5        30.12F
COVINGTON      MOCLDY    77  71  82 S7        30.08F
FRANKFORT      PTCLDY    77  68  73 S6        30.10F
$$

KYZ054-064>069-076>088-106>120-220500-
SOUTHEAST KENTUCKY

CITY           SKY/WX    TMP DP  RH WIND       PRES   REMARKS
JACKSON        CLEAR     75  70  84 CALM      30.17S
LONDON         PTCLDY    73  70  90 CALM      30.17S
SOMERSET       NOT AVBL
MIDDLESBORO    CLEAR     69  68  98 CALM      30.20S
MONTICELLO     CLEAR     69  69 100 NE8       30.17F
$$




USA.gov is the U.S. government's official web portal to all federal, state and local government web resources and services.